Miscellaneous Local Product
Issued by NWS Hastings, NE

Home | Current Version | Previous Version | Graphics & Text | Print | Product List | Glossary On
Versions: 1 2 3 4 5 6 7 8 9 10 11 12 13 14 15 16 17 18 19 20 21 22 23 24 25 26 27 28 29 30 31 32 33 34 35 36 37 38 39 40 41 42 43 44 45 46 47 48 49 50
000
AXUS43 KGID 271702
MISGRI

GID CWA HOURLY WEATHER ROUNDUP
NATIONAL WEATHER SERVICE HASTINGS NE
1200 PM CDT MON JUL 27 2015

NOTE: "FAIR" INDICATES FEW OR NO CLOUDS BELOW 12,000 FEET WITH NO
SIGNIFICANT WEATHER AND/OR OBSTRUCTIONS TO VISIBILITY.

...SOUTH CENTRAL NEBRASKA...

CITY           SKY/WX    TMP DP  RH WIND       PRES   REMARKS
GRAND ISLAND   MOSUNNY   84  67  56 SE14      29.91R
HASTINGS       MOSUNNY   82  68  62 S10       29.91F
KEARNEY        MOSUNNY   81  66  61 SE10      29.89F
ORD            SUNNY     86  65  49 S8G17     29.86F
YORK           MOSUNNY   81  72  74 S9        29.92R
AURORA         PTSUNNY   81  67  62 SE12      29.92R
LEXINGTON      MOSUNNY   84  68  59 S14       29.88F
HOLDREGE       MOSUNNY   81  66  58 SE10      29.90S
HEBRON         MOSUNNY   81  68  64 SE10      29.91F

...NEBRASKA PANHANDLE...

CITY           SKY/WX    TMP DP  RH WIND       PRES   REMARKS
CHADRON        SUNNY     86  63  45 SE8       29.78F
ALLIANCE       SUNNY     82  66  58 SE17G24   29.85S
SCOTTSBLUFF    SUNNY     81  65  58 E10       29.84F
SIDNEY         SUNNY     82  65  56 S9        29.90S

...WESTERN AND NORTH CENTRAL NEBRASKA...

CITY           SKY/WX    TMP DP  RH WIND       PRES   REMARKS
VALENTINE      SUNNY     84  63  49 SE13G23   29.84F
AINSWORTH      SUNNY     85  64  49 SE18      29.85F
ONEILL         MOSUNNY   88  67  48 SE13      29.87F HX  91
BROKEN BOW     SUNNY     83  68  60 S10G23    29.88F
IMPERIAL       SUNNY     85  65  51 S12       29.87F
NORTH PLATTE   PTSUNNY   82  67  60 S17G24    29.86F
MCCOOK         MOSUNNY   86  67  52 S18G28    29.87F

...EASTERN NEBRASKA...

CITY           SKY/WX    TMP DP  RH WIND       PRES   REMARKS
NORFOLK        PTSUNNY   85  76  74 E6        29.88R HX  94
SO SIOUX CITY  PTSUNNY   80  69  69 SE15G24   29.87F
TEKAMAH        CLOUDY    81  71  71 E10       29.89S
COLUMBUS       PTSUNNY   84  70  61 S6        29.88R
ALBION         SUNNY     85  73  68 S6        29.89S HX  92
OMAHA EPPLEY   CLOUDY    82  77  84 SE3       29.91R HX  90
OFFUTT AFB     CLOUDY    80  76  85 S7        29.91R
MILLARD        CLOUDY    81  75  80 CALM      29.90R
LINCOLN        CLOUDY    83  70  64 NW6       29.90S
NEBRASKA CITY  CLOUDY    78  75  89 S5        29.93R
BEATRICE       CLOUDY    78  72  81 S5        29.91R
FALLS CITY     CLOUDY    82  75  79 SW7       29.92R

...NORTHERN KANSAS...

CITY           SKY/WX    TMP DP  RH WIND       PRES   REMARKS
GOODLAND       MOSUNNY   80  66  62 S21G30    29.91F
HILL CITY      SUNNY     88  69  53 S17G26    29.88F HX  92
NORTON         SUNNY     86  66  51 SE14      29.87F
PHILLIPSBURG   SUNNY     86  70  58 S10       29.89S HX  90
SMITH CENTER   SUNNY     82  70  65 SE10      29.89S
HAYS           PTSUNNY   88  66  48 S24G30    29.88F HX  90
RUSSELL        CLOUDY    87  69  54 S21G30    29.88S HX  91
CONCORDIA      MOSUNNY   83  69  62 SE15      29.90F
SALINA         PTSUNNY   84  71  65 S6        29.90F
TOPEKA         CLOUDY    83  75  77 S5        29.92R HX  90



USA.gov is the U.S. government's official web portal to all federal, state and local government web resources and services.